Time,TemperatureF,DewpointF,PressureIn,WindDirection,WindDirectionDegrees,WindSpeedMPH,WindSpeedGustMPH,Humidity,HourlyPrecipIn,Conditions,Clouds,dailyrainin,SoftwareType,DateUTC
2013-04-01 00:22:00,55.0,54.0,30.13,West,270,4.0,-999.0,95,0.00,,,-99.99,,2013-04-01 07:22:00,
2013-04-01 00:32:00,55.0,54.0,30.13,West,270,4.0,-999.0,95,0.00,,,-99.99,,2013-04-01 07:32:00,
2013-04-01 00:42:00,55.0,54.0,30.13,West,270,4.0,-999.0,95,0.00,,,-99.99,,2013-04-01 07:42:00,
2013-04-01 00:52:00,55.0,54.0,30.13,West,270,4.0,-999.0,95,0.00,,,-99.99,,2013-04-01 07:52:00,
2013-04-01 01:22:00,55.0,54.0,30.13,WNW,290,1.0,-999.0,95,0.00,,,-99.99,,2013-04-01 08:22:00,
2013-04-01 01:32:00,55.0,54.0,30.13,WNW,290,1.0,-999.0,95,0.00,,,-99.99,,2013-04-01 08:32:00,
2013-04-01 01:43:00,55.0,54.0,30.13,WNW,290,1.0,-999.0,95,0.00,,,-99.99,,2013-04-01 08:43:00,
2013-04-01 01:52:00,55.0,54.0,30.13,WNW,290,1.0,-999.0,95,0.00,,,-99.99,,2013-04-01 08:52:00,
2013-04-01 02:22:00,55.0,53.0,30.13,WNW,290,3.0,-999.0,94,0.00,,,-99.99,,2013-04-01 09:22:00,
2013-04-01 02:33:00,55.0,53.0,30.13,WNW,290,3.0,-999.0,94,0.00,,,-99.99,,2013-04-01 09:33:00,
2013-04-01 02:42:00,55.0,53.0,30.13,WNW,290,3.0,-999.0,94,0.00,,,-99.99,,2013-04-01 09:42:00,
2013-04-01 02:52:00,55.0,53.0,30.13,WNW,290,3.0,-999.0,94,0.00,,,-99.99,,2013-04-01 09:52:00,
2013-04-01 03:23:00,55.0,53.0,30.13,WNW,300,2.0,-999.0,94,0.00,,,-99.99,,2013-04-01 10:23:00,
2013-04-01 03:33:00,55.0,53.0,30.13,WNW,300,2.0,-999.0,94,0.00,,,-99.99,,2013-04-01 10:33:00,
2013-04-01 03:42:00,55.0,53.0,30.13,WNW,300,2.0,-999.0,94,0.00,,,-99.99,,2013-04-01 10:42:00,
2013-04-01 03:52:00,55.0,53.0,30.13,WNW,300,2.0,-999.0,94,0.00,,,-99.99,,2013-04-01 10:52:00,
2013-04-01 04:23:00,55.0,53.0,30.13,WNW,300,2.0,-999.0,92,0.00,,,-99.99,,2013-04-01 11:23:00,
2013-04-01 04:32:00,55.0,53.0,30.13,WNW,300,2.0,-999.0,92,0.00,,,-99.99,,2013-04-01 11:32:00,
2013-04-01 04:42:00,55.0,53.0,30.13,WNW,300,2.0,-999.0,92,0.00,,,-99.99,,2013-04-01 11:42:00,
2013-04-01 04:52:00,55.0,53.0,30.13,WNW,300,2.0,-999.0,92,0.00,,,-99.99,,2013-04-01 11:52:00,
2013-04-01 05:22:00,55.0,53.0,30.14,WNW,300,3.0,-999.0,93,0.00,,,-99.99,,2013-04-01 12:22:00,
2013-04-01 05:32:00,55.0,53.0,30.14,WNW,300,3.0,-999.0,93,0.00,,,-99.99,,2013-04-01 12:32:00,
2013-04-01 05:42:00,55.0,53.0,30.14,WNW,300,3.0,-999.0,93,0.00,,,-99.99,,2013-04-01 12:42:00,
2013-04-01 05:52:00,55.0,53.0,30.14,WNW,300,3.0,-999.0,93,0.00,,,-99.99,,2013-04-01 12:52:00,
2013-04-01 06:22:00,55.0,52.0,30.14,NW,310,4.0,-999.0,89,0.00,,,-99.99,,2013-04-01 13:22:00,
2013-04-01 06:32:00,55.0,52.0,30.14,NW,310,4.0,-999.0,89,0.00,,,-99.99,,2013-04-01 13:32:00,
2013-04-01 06:42:00,55.0,52.0,30.14,NW,310,4.0,-999.0,89,0.00,,,-99.99,,2013-04-01 13:42:00,
2013-04-01 06:52:00,55.0,52.0,30.14,NW,310,4.0,-999.0,89,0.00,,,-99.99,,2013-04-01 13:52:00,
2013-04-01 07:22:00,55.0,52.0,30.16,WNW,290,1.0,-999.0,90,0.00,,,-99.99,,2013-04-01 14:22:00,
2013-04-01 07:32:00,55.0,52.0,30.16,WNW,290,1.0,-999.0,90,0.00,,,-99.99,,2013-04-01 14:32:00,
2013-04-01 07:42:00,55.0,52.0,30.16,WNW,290,1.0,-999.0,90,0.00,,,-99.99,,2013-04-01 14:42:00,
2013-04-01 07:52:00,55.0,52.0,30.16,WNW,290,1.0,-999.0,90,0.00,,,-99.99,,2013-04-01 14:52:00,
2013-04-01 08:22:00,56.0,52.0,30.18,NNE,20,6.0,-999.0,85,0.00,,,-99.99,,2013-04-01 15:22:00,
2013-04-01 08:33:00,56.0,52.0,30.18,NNE,20,6.0,-999.0,85,0.00,,,-99.99,,2013-04-01 15:33:00,
2013-04-01 08:43:00,56.0,52.0,30.18,NNE,20,6.0,-999.0,85,0.00,,,-99.99,,2013-04-01 15:43:00,
2013-04-01 08:53:00,56.0,52.0,30.18,NNE,20,6.0,-999.0,85,0.00,,,-99.99,,2013-04-01 15:53:00,
2013-04-01 09:23:00,57.0,52.0,30.19,WSW,240,4.0,-999.0,84,0.00,,,-99.99,,2013-04-01 16:23:00,
2013-04-01 09:33:00,57.0,52.0,30.19,WSW,240,4.0,-999.0,84,0.00,,,-99.99,,2013-04-01 16:33:00,
2013-04-01 09:42:00,57.0,52.0,30.19,WSW,240,4.0,-999.0,84,0.00,,,-99.99,,2013-04-01 16:42:00,
2013-04-01 09:50:00,58.0,54.0,30.18,West,260,7.0,-999.0,86,0.00,,,-99.99,,2013-04-01 16:50:00,
2013-04-01 09:52:00,57.0,52.0,30.19,WSW,240,4.0,-999.0,84,0.00,,,-99.99,,2013-04-01 16:52:00,
2013-04-01 10:32:00,58.0,54.0,30.18,West,260,7.0,-999.0,86,0.00,,,-99.99,,2013-04-01 17:32:00,
2013-04-01 10:41:00,58.0,54.0,30.18,West,260,7.0,-999.0,86,0.00,,,-99.99,,2013-04-01 17:41:00,
2013-04-01 11:22:00,60.0,54.0,30.18,NNW,330,4.0,-999.0,81,0.00,,,-99.99,,2013-04-01 18:22:00,
2013-04-01 11:32:00,60.0,54.0,30.18,NNW,330,4.0,-999.0,81,0.00,,,-99.99,,2013-04-01 18:32:00,
2013-04-01 11:42:00,60.0,54.0,30.18,NNW,330,4.0,-999.0,81,0.00,,,-99.99,,2013-04-01 18:42:00,
2013-04-01 11:52:00,60.0,54.0,30.18,NNW,330,4.0,-999.0,81,0.00,,,-99.99,,2013-04-01 18:52:00,
2013-04-01 12:23:00,62.0,54.0,30.17,South,170,4.0,-999.0,75,0.00,,,-99.99,,2013-04-01 19:23:00,
2013-04-01 12:32:00,62.0,54.0,30.17,South,170,4.0,-999.0,75,0.00,,,-99.99,,2013-04-01 19:32:00,
2013-04-01 12:42:00,62.0,54.0,30.17,South,170,4.0,-999.0,75,0.00,,,-99.99,,2013-04-01 19:42:00,
2013-04-01 12:52:00,62.0,54.0,30.17,South,170,4.0,-999.0,75,0.00,,,-99.99,,2013-04-01 19:52:00,
2013-04-01 13:22:00,61.0,54.0,30.15,ENE,60,3.0,-999.0,77,0.00,,,-99.99,,2013-04-01 20:22:00,
2013-04-01 13:32:00,61.0,54.0,30.15,ENE,60,3.0,-999.0,77,0.00,,,-99.99,,2013-04-01 20:32:00,
2013-04-01 13:42:00,61.0,54.0,30.15,ENE,60,3.0,-999.0,77,0.00,,,-99.99,,2013-04-01 20:42:00,
2013-04-01 13:52:00,61.0,54.0,30.15,ENE,60,3.0,-999.0,77,0.00,,,-99.99,,2013-04-01 20:52:00,
2013-04-01 14:22:00,62.0,54.0,30.14,East,100,10.0,-999.0,75,0.00,,,-99.99,,2013-04-01 21:22:00,
2013-04-01 14:32:00,62.0,54.0,30.14,East,100,10.0,-999.0,75,0.00,,,-99.99,,2013-04-01 21:32:00,
2013-04-01 14:43:00,62.0,54.0,30.14,East,100,10.0,-999.0,75,0.00,,,-99.99,,2013-04-01 21:43:00,
2013-04-01 14:52:00,62.0,54.0,30.14,East,100,10.0,-999.0,75,0.00,,,-99.99,,2013-04-01 21:52:00,
2013-04-01 15:22:00,61.0,54.0,30.12,West,280,13.0,-999.0,78,0.00,,,-99.99,,2013-04-01 22:22:00,
2013-04-01 15:33:00,61.0,54.0,30.12,West,280,13.0,-999.0,78,0.00,,,-99.99,,2013-04-01 22:33:00,
2013-04-01 15:42:00,61.0,54.0,30.12,West,280,13.0,-999.0,78,0.00,,,-99.99,,2013-04-01 22:42:00,
2013-04-01 15:52:00,61.0,54.0,30.12,West,280,13.0,-999.0,78,0.00,,,-99.99,,2013-04-01 22:52:00,
2013-04-01 16:22:00,62.0,56.0,30.10,NNW,340,7.0,-999.0,82,0.00,,,-99.99,,2013-04-01 23:22:00,
2013-04-01 16:32:00,62.0,56.0,30.10,NNW,340,7.0,-999.0,82,0.00,,,-99.99,,2013-04-01 23:32:00,
2013-04-01 16:42:00,62.0,56.0,30.10,NNW,340,7.0,-999.0,82,0.00,,,-99.99,,2013-04-01 23:42:00,
2013-04-01 16:52:00,62.0,56.0,30.10,NNW,340,7.0,-999.0,82,0.00,,,-99.99,,2013-04-01 23:52:00,
2013-04-01 17:22:00,62.0,57.0,30.09,South,170,4.0,-999.0,83,0.00,,,-99.99,,2013-04-02 00:22:00,
2013-04-01 17:32:00,62.0,57.0,30.09,South,170,4.0,-999.0,83,0.00,,,-99.99,,2013-04-02 00:32:00,
2013-04-01 17:42:00,62.0,57.0,30.09,South,170,4.0,-999.0,83,0.00,,,-99.99,,2013-04-02 00:42:00,
2013-04-01 17:52:00,62.0,57.0,30.09,South,170,4.0,-999.0,83,0.00,,,-99.99,,2013-04-02 00:52:00,
2013-04-01 18:22:00,60.0,56.0,30.09,WNW,300,9.0,-999.0,87,0.00,,,-99.99,,2013-04-02 01:22:00,
2013-04-01 18:32:00,60.0,56.0,30.09,WNW,300,9.0,-999.0,87,0.00,,,-99.99,,2013-04-02 01:32:00,
2013-04-01 18:42:00,60.0,56.0,30.09,WNW,300,9.0,-999.0,87,0.00,,,-99.99,,2013-04-02 01:42:00,
2013-04-01 18:52:00,60.0,56.0,30.09,WNW,300,9.0,-999.0,87,0.00,,,-99.99,,2013-04-02 01:52:00,
2013-04-01 19:22:00,58.0,54.0,30.10,WNW,290,13.0,-999.0,87,0.00,,,-99.99,,2013-04-02 02:22:00,
2013-04-01 19:32:00,58.0,54.0,30.10,WNW,290,13.0,-999.0,87,0.00,,,-99.99,,2013-04-02 02:32:00,
2013-04-01 19:42:00,58.0,54.0,30.10,WNW,290,13.0,-999.0,87,0.00,,,-99.99,,2013-04-02 02:42:00,
2013-04-01 19:52:00,58.0,54.0,30.10,WNW,290,13.0,-999.0,87,0.00,,,-99.99,,2013-04-02 02:52:00,
2013-04-01 20:22:00,57.0,54.0,30.09,WNW,290,7.0,-999.0,91,0.00,,,-99.99,,2013-04-02 03:22:00,
2013-04-01 20:33:00,57.0,54.0,30.09,WNW,290,7.0,-999.0,91,0.00,,,-99.99,,2013-04-02 03:33:00,
2013-04-01 20:43:00,57.0,54.0,30.09,WNW,290,7.0,-999.0,91,0.00,,,-99.99,,2013-04-02 03:43:00,
2013-04-01 20:52:00,57.0,54.0,30.09,WNW,290,7.0,-999.0,91,0.00,,,-99.99,,2013-04-02 03:52:00,
2013-04-01 21:22:00,57.0,55.0,30.09,West,280,3.0,-999.0,93,0.00,,,-99.99,,2013-04-02 04:22:00,
2013-04-01 21:32:00,57.0,55.0,30.09,West,280,3.0,-999.0,93,0.00,,,-99.99,,2013-04-02 04:32:00,
2013-04-01 21:42:00,57.0,55.0,30.09,West,280,3.0,-999.0,93,0.00,,,-99.99,,2013-04-02 04:42:00,
2013-04-01 21:52:00,57.0,55.0,30.09,West,280,3.0,-999.0,93,0.00,,,-99.99,,2013-04-02 04:52:00,
2013-04-01 22:22:00,56.0,55.0,30.10,WNW,300,2.0,-999.0,95,0.00,,,-99.99,,2013-04-02 05:22:00,
2013-04-01 22:32:00,56.0,55.0,30.10,WNW,300,2.0,-999.0,95,0.00,,,-99.99,,2013-04-02 05:32:00,
2013-04-01 22:42:00,56.0,55.0,30.10,WNW,300,2.0,-999.0,95,0.00,,,-99.99,,2013-04-02 05:42:00,
2013-04-01 22:52:00,56.0,55.0,30.10,WNW,300,2.0,-999.0,95,0.00,,,-99.99,,2013-04-02 05:52:00,
2013-04-01 23:22:00,55.0,54.0,30.10,North,0,0.0,-999.0,95,0.00,,,-99.99,,2013-04-02 06:22:00,
2013-04-01 23:32:00,55.0,54.0,30.10,North,0,0.0,-999.0,95,0.00,,,-99.99,,2013-04-02 06:32:00,
2013-04-01 23:42:00,55.0,54.0,30.10,North,0,0.0,-999.0,95,0.00,,,-99.99,,2013-04-02 06:42:00,
2013-04-01 23:52:00,55.0,54.0,30.10,North,0,0.0,-999.0,95,0.00,,,-99.99,,2013-04-02 06:52:00,